FW7618 Weather Reports


time (UTC)temp
C
wind
direction
speed
KPH
gust
KPH
rain 1hr
cm
rain 24hr
cm
rain mn
cm
humidity
%
barometer
mb
20260507134534 8 242 0.0 3.2 0.00 0.08 0.03 62 1015.7
20260507133044 8 115 1.6 6.4 0.00 0.08 0.03 66 1015.8
20260507131543 7 0 0.0 6.4 0.00 0.08 0.03 72 1015.8
20260507130043 7 0 0.0 4.8 0.00 0.08 0.03 78 1015.6
20260507124538 6 0 0.0 4.8 0.00 0.08 0.03 82 1015.8
20260507123047 6 0 0.0 0.0 0.00 0.08 0.03 86 1015.8
20260507121542 5 0 0.0 0.0 0.00 0.08 0.03 90 1015.9
20260507120042 5 0 0.0 0.0 0.00 0.08 0.03 92 1015.8
20260507114539 5 0 0.0 0.0 0.00 0.08 0.03 92 1015.8
20260507113035 4 0 0.0 0.0 0.00 0.08 0.03 92 1015.8
20260507111548 4 0 0.0 0.0 0.00 0.08 0.03 92 1015.7
20260507110044 3 0 0.0 0.0 0.00 0.08 0.03 91 1015.5
20260507104543 4 0 0.0 0.0 0.00 0.08 0.03 91 1015.3
20260507103042 4 0 0.0 0.0 0.03 0.08 0.03 90 1015.3
20260507101546 4 0 0.0 0.0 0.03 0.08 0.03 90 1015.2
20260507100045 5 0 0.0 0.0 0.03 0.08 0.03 90 1015.2
20260507094542 5 0 0.0 0.0 0.03 0.08 0.03 90 1015.2
20260507093045 5 0 0.0 0.0 0.00 0.05 0.00 91 1015.2
20260507091542 5 0 0.0 0.0 0.00 0.05 0.00 90 1015.1
20260507090038 5 0 0.0 0.0 0.00 0.05 0.00 90 1015.0
20260507084537 5 0 0.0 0.0 0.00 0.05 0.00 90 1014.9
20260507083043 5 0 0.0 0.0 0.00 0.05 0.00 90 1014.9
20260507081542 5 0 0.0 0.0 0.00 0.05 0.00 90 1014.6
20260507080040 5 0 0.0 0.0 0.00 0.05 0.00 89 1014.7
20260507074538 6 0 0.0 0.0 0.00 0.05 0.00 89 1014.6
20260507073037 6 0 0.0 0.0 0.00 0.05 0.00 89 1014.6
20260507071535 6 0 0.0 0.0 0.00 0.05 0.00 89 1014.7
20260507070044 6 0 0.0 0.0 0.00 0.05 0.00 88 1014.6
20260507064541 6 0 0.0 0.0 0.00 0.08 0.00 88 1014.7
20260507063042 6 0 0.0 0.0 0.00 0.08 0.00 88 1014.9
20260507061544 6 0 0.0 0.0 0.00 0.08 0.00 88 1014.7
20260507060052 6 0 0.0 0.0 0.00 0.08 0.00 87 1014.7
20260507054548 6 0 0.0 0.0 0.00 0.08 0.00 86 1014.8
20260507053042 7 0 0.0 0.0 0.00 0.08 0.00 86 1015.0
20260507051545 7 0 0.0 0.0 0.00 0.08 0.00 86 1014.8
20260507050046 7 0 0.0 0.0 0.00 0.08 0.00 85 1015.0
20260507044553 7 0 0.0 0.0 0.00 0.10 0.00 85 1015.1
20260507043040 7 0 0.0 0.0 0.00 0.10 0.00 84 1014.9
20260507041543 7 0 0.0 0.0 0.00 0.10 0.00 83 1014.9
20260507040049 7 0 0.0 0.0 0.00 0.10 0.00 83 1014.8
20260507034538 8 0 0.0 0.0 0.00 0.10 0.10 82 1014.7
20260507033035 8 0 0.0 0.0 0.00 0.10 0.10 81 1014.9
20260507031543 8 0 0.0 0.0 0.00 0.10 0.10 80 1014.9
20260507030045 8 0 0.0 0.0 0.00 0.10 0.10 80 1014.9
20260507024545 8 0 0.0 0.0 0.00 0.13 0.10 79 1014.9
20260507023037 9 0 0.0 0.0 0.00 0.13 0.10 77 1014.8
20260507021536 9 0 0.0 0.0 0.00 0.13 0.10 76 1014.8
20260507020049 10 0 0.0 0.0 0.00 0.13 0.10 75 1014.6
20260507014542 10 0 0.0 0.0 0.00 0.15 0.10 74 1014.6
20260507013036 11 0 0.0 0.0 0.00 0.15 0.10 70 1014.3
20260507011536 11 0 0.0 0.0 0.00 0.15 0.10 68 1014.1
20260507010044 11 0 0.0 0.0 0.00 0.15 0.10 68 1014.2
20260507004539 12 0 0.0 0.0 0.00 0.18 0.10 65 1014.2
20260507003045 12 0 0.0 0.0 0.00 0.18 0.10 65 1014.1
20260507001544 12 0 0.0 0.0 0.00 0.18 0.10 61 1014.0
20260507000048 13 0 0.0 3.2 0.00 0.18 0.10 62 1013.8
20260506234541 13 121 0.0 16.1 0.00 0.23 0.10 60 1013.5
20260506233045 13 0 0.0 6.4 0.00 0.23 0.10 61 1013.5
20260506231545 13 0 3.2 14.5 0.00 0.23 0.10 58 1013.3
20260506230044 13 0 0.0 3.2 0.00 0.23 0.10 58 1013.3
20260506224544 13 0 0.0 3.2 0.00 0.23 0.10 59 1013.3
20260506223050 13 0 0.0 3.2 0.00 0.23 0.10 58 1013.5
20260506221548 13 0 1.6 6.4 0.00 0.23 0.10 56 1013.6
20260506220048 13 0 0.0 1.6 0.00 0.23 0.10 58 1013.8
20260506214601 13 0 0.0 4.8 0.00 0.25 0.10 60 1013.6
20260506213044 13 229 0.0 4.8 0.00 0.25 0.10 58 1013.5
20260506211541 14 0 0.0 4.8 0.00 0.25 0.10 60 1013.4
20260506210052 14 246 1.6 11.3 0.00 0.25 0.10 54 1013.2
20260506204549 14 0 0.0 3.2 0.00 0.25 0.10 57 1013.2
20260506203047 14 131 0.0 4.8 0.00 0.25 0.10 56 1013.3
20260506201545 14 0 0.0 11.3 0.03 0.25 0.10 60 1013.3
20260506200042 14 0 0.0 6.4 0.03 0.25 0.10 56 1013.3
20260506194557 14 0 0.0 9.7 0.03 0.25 0.10 58 1013.4
20260506193043 15 223 3.2 9.7 0.03 0.25 0.10 53 1013.1
20260506191543 15 0 0.0 6.4 0.00 0.23 0.08 55 1012.9
20260506190044 15 196 1.6 11.3 0.00 0.23 0.08 55 1012.8
20260506184540 15 130 0.0 12.9 0.00 0.23 0.08 56 1012.9
20260506183036 15 107 1.6 6.4 0.00 0.23 0.08 59 1012.7
20260506181537 15 182 3.2 11.3 0.00 0.23 0.08 59 1012.8
20260506180049 15 0 0.0 12.9 0.00 0.23 0.08 58 1013.1
20260506174542 14 273 0.0 6.4 0.00 0.23 0.08 59 1013.1
20260506173042 13 162 3.2 9.7 0.00 0.23 0.08 56 1013.3
20260506171551 13 240 0.0 9.7 0.00 0.23 0.08 64 1013.3
20260506170049 13 241 3.2 8.0 0.00 0.23 0.08 59 1013.5
20260506164544 13 234 0.0 12.9 0.00 0.23 0.08 64 1013.6
20260506163045 12 110 1.6 12.9 0.00 0.23 0.08 64 1013.4
20260506161542 12 0 3.2 9.7 0.00 0.23 0.08 67 1013.5
20260506160039 12 0 1.6 8.0 0.00 0.23 0.08 72 1013.3
20260506154537 11 227 3.2 8.0 0.00 0.23 0.08 65 1013.2
20260506153043 11 233 3.2 14.5 0.00 0.23 0.08 68 1013.4
20260506151543 11 203 1.6 8.0 0.00 0.23 0.08 72 1013.5
20260506150047 10 153 0.0 6.4 0.00 0.23 0.08 77 1013.1
20260506144547 10 0 0.0 11.3 0.00 0.23 0.08 79 1012.6
20260506143045 9 0 0.0 8.0 0.00 0.23 0.08 80 1012.2
20260506141537 9 0 0.0 8.0 0.00 0.23 0.08 85 1012.4
20260506140055 8 113 1.6 11.3 0.03 0.23 0.08 85 1012.4